TimeEDT,TemperatureF,Dew PointF,Humidity,Sea Level PressureIn,VisibilityMPH,Wind Direction,Wind SpeedMPH,Gust SpeedMPH,PrecipitationIn,Events,Conditions,WindDirDegrees,DateUTC
12:53 AM,52.0,46.0,80,30.33,10.0,WNW,3.5,-,N/A,,Clear,300,2013-08-25 04:53:00
1:53 AM,52.0,45.0,77,30.32,10.0,West,3.5,-,N/A,,Clear,280,2013-08-25 05:53:00
2:53 AM,55.0,48.0,77,30.31,10.0,WNW,4.6,-,N/A,,Clear,290,2013-08-25 06:53:00
3:53 AM,57.9,53.1,84,30.31,10.0,WNW,6.9,-,N/A,,Clear,290,2013-08-25 07:53:00
4:53 AM,57.9,51.1,78,30.31,10.0,WNW,5.8,-,N/A,,Clear,290,2013-08-25 08:53:00
5:53 AM,57.9,51.1,78,30.33,10.0,WNW,6.9,-,N/A,,Clear,300,2013-08-25 09:53:00
6:53 AM,62.1,53.1,72,30.35,10.0,WNW,8.1,-,N/A,,Clear,300,2013-08-25 10:53:00
7:53 AM,66.9,55.0,66,30.36,10.0,WNW,8.1,-,N/A,,Clear,300,2013-08-25 11:53:00
8:53 AM,70.0,54.0,57,30.37,10.0,WNW,9.2,-,N/A,,Clear,300,2013-08-25 12:53:00
9:53 AM,73.0,55.9,55,30.36,10.0,NW,9.2,-,N/A,,Clear,320,2013-08-25 13:53:00
10:53 AM,73.9,60.1,62,30.35,10.0,WSW,9.2,-,N/A,,Clear,240,2013-08-25 14:53:00
11:53 AM,72.0,62.1,71,30.34,10.0,SW,11.5,-,N/A,,Clear,220,2013-08-25 15:53:00
12:53 PM,73.9,59.0,59,30.32,10.0,SW,9.2,-,N/A,,Clear,230,2013-08-25 16:53:00
1:53 PM,73.0,57.0,57,30.32,10.0,SW,8.1,-,N/A,,Clear,230,2013-08-25 17:53:00
2:53 PM,73.0,59.0,61,30.31,10.0,SW,13.8,-,N/A,,Clear,230,2013-08-25 18:53:00
3:53 PM,72.0,61.0,68,30.30,10.0,SW,11.5,-,N/A,,Clear,230,2013-08-25 19:53:00
4:53 PM,72.0,60.1,66,30.29,10.0,WSW,12.7,-,N/A,,Clear,250,2013-08-25 20:53:00
5:53 PM,70.0,59.0,68,30.27,10.0,WSW,10.4,-,N/A,,Clear,240,2013-08-25 21:53:00
6:53 PM,66.9,62.1,84,30.26,10.0,WSW,9.2,-,N/A,,Clear,250,2013-08-25 22:53:00
7:53 PM,66.0,63.0,90,30.25,10.0,SW,10.4,-,N/A,,Clear,230,2013-08-25 23:53:00
8:53 PM,66.0,63.0,90,30.25,10.0,SW,6.9,-,N/A,,Clear,220,2013-08-26 00:53:00
9:53 PM,66.0,63.0,90,30.25,10.0,SW,6.9,-,N/A,,Clear,230,2013-08-26 01:53:00
10:53 PM,64.9,63.0,93,30.25,10.0,WSW,8.1,-,N/A,,Clear,250,2013-08-26 02:53:00
11:53 PM,64.9,63.0,93,30.25,10.0,WSW,6.9,-,N/A,,Clear,240,2013-08-26 03:53:00